• In United Kingdom
  • List of Countries
  • For 7 days
  • Water Temperature
  • Satellite Maps
  • Weather Map
  • Weather Widgets
  • user-avatar
    Login

    Hourly Weather Seli

    Today, 17 January, Wednesday

    Time Temperature Precipitation Wind Pressure Humidity
    00:00 +11°C° 0 mm 9 mps 751 mmHg 76%
    01:00 +11°C° 0 mm 9 mps 750 mmHg 76%
    02:00 +11°C° 0 mm 9 mps 750 mmHg 77%
    03:00 +11°C° 0 mm 9 mps 750 mmHg 77%
    04:00 +11°C° 0 mm 9 mps 750 mmHg 77%
    05:00 +11°C° 0 mm 9 mps 749 mmHg 77%
    06:00 +11°C° 0 mm 9 mps 749 mmHg 77%
    07:00 +11°C° 0 mm 9 mps 749 mmHg 77%
    08:00 +11°C° 0 mm 8 mps 749 mmHg 78%
    09:00 +12°C° 0 mm 8 mps 749 mmHg 74%
    10:00 +15°C° 0 mm 8 mps 749 mmHg 70%
    11:00 +16°C° 0 mm 8 mps 749 mmHg 66%
    12:00 +16°C° 0 mm 9 mps 748 mmHg 67%
    13:00 +16°C° 0 mm 9 mps 747 mmHg 67%
    14:00 +16°C° 0 mm 10 mps 747 mmHg 68%
    15:00 +16°C° 0 mm 10 mps 747 mmHg 70%
    16:00 +14°C° 0 mm 10 mps 746 mmHg 72%
    17:00 +14°C° 0 mm 10 mps 746 mmHg 74%
    18:00 +13°C° 0 mm 10 mps 746 mmHg 76%
    19:00 +13°C° 0 mm 10 mps 746 mmHg 78%
    20:00 +12°C° 0 mm 10 mps 745 mmHg 80%
    21:00 +12°C° 0.1 mm 11 mps 745 mmHg 80%
    22:00 +12°C° 0.1 mm 11 mps 745 mmHg 79%
    23:00 +12°C° 0.1 mm 11 mps 745 mmHg 79%

    Tomorrow, 18 January, Thursday

    Time Temperature Precipitation Wind Pressure Humidity
    00:00 +13°C° 0.1 mm 11 mps 744 mmHg 79%
    01:00 +13°C° 0.1 mm 11 mps 744 mmHg 79%
    02:00 +13°C° 0.1 mm 11 mps 744 mmHg 78%
    03:00 +13°C° 0.2 mm 11 mps 743 mmHg 79%
    04:00 +13°C° 0.2 mm 12 mps 743 mmHg 79%
    05:00 +13°C° 0.2 mm 12 mps 743 mmHg 79%
    06:00 +13°C° 0.1 mm 12 mps 744 mmHg 77%
    07:00 +13°C° 0.1 mm 12 mps 744 mmHg 75%
    08:00 +13°C° 0.1 mm 13 mps 745 mmHg 73%
    09:00 +13°C° 0 mm 13 mps 746 mmHg 64%
    10:00 +13°C° 0 mm 13 mps 747 mmHg 55%
    11:00 +14°C° 0 mm 13 mps 747 mmHg 46%
    12:00 +13°C° 0 mm 13 mps 748 mmHg 44%
    13:00 +13°C° 0 mm 12 mps 748 mmHg 43%
    14:00 +13°C° 0 mm 12 mps 748 mmHg 42%
    15:00 +12°C° 0 mm 11 mps 749 mmHg 41%
    16:00 +11°C° 0 mm 10 mps 749 mmHg 40%
    17:00 +10°C° 0 mm 9 mps 750 mmHg 39%
    18:00 +10°C° 0 mm 9 mps 751 mmHg 39%
    19:00 +9°C° 0 mm 8 mps 751 mmHg 39%
    20:00 +9°C° 0 mm 7 mps 752 mmHg 39%
    21:00 +9°C° 0 mm 7 mps 752 mmHg 41%
    22:00 +9°C° 0 mm 6 mps 753 mmHg 42%
    23:00 +8°C° 0 mm 6 mps 753 mmHg 43%

    Day after tomorrow, 19 January, Friday

    Time Temperature Precipitation Wind Pressure Humidity
    00:00 +8°C° 0 mm 4 mps 753 mmHg 44%
    01:00 +9°C° 0 mm 3 mps 753 mmHg 44%
    02:00 +8°C° 0 mm 2 mps 753 mmHg 45%
    03:00 +8°C° 0 mm 3 mps 753 mmHg 46%
    04:00 +8°C° 0 mm 3 mps 753 mmHg 47%
    05:00 +8°C° 0 mm 3 mps 753 mmHg 48%
    06:00 +8°C° 0 mm 3 mps 753 mmHg 49%
    07:00 +7°C° 0 mm 4 mps 753 mmHg 50%
    08:00 +7°C° 0 mm 5 mps 753 mmHg 51%
    09:00 +9°C° 0 mm 5 mps 753 mmHg 47%
    10:00 +11°C° 0 mm 6 mps 753 mmHg 42%
    11:00 +14°C° 0 mm 6 mps 754 mmHg 38%
    12:00 +14°C° 0 mm 7 mps 753 mmHg 42%
    13:00 +14°C° 0 mm 7 mps 753 mmHg 47%
    14:00 +15°C° 0 mm 7 mps 752 mmHg 51%
    15:00 +14°C° 0 mm 7 mps 752 mmHg 56%
    16:00 +14°C° 0 mm 7 mps 752 mmHg 62%
    17:00 +12°C° 0 mm 7 mps 752 mmHg 67%
    18:00 +12°C° 0 mm 7 mps 752 mmHg 71%
    19:00 +11°C° 0 mm 7 mps 753 mmHg 74%
    20:00 +10°C° 0 mm 6 mps 753 mmHg 77%
    21:00 +10°C° 0 mm 6 mps 753 mmHg 77%
    22:00 +10°C° 0 mm 6 mps 753 mmHg 78%
    23:00 +10°C° 0 mm 6 mps 753 mmHg 78%

    20 January, Saturday

    Time Temperature Precipitation Wind Pressure Humidity
    00:00 +10°C° 0 mm 6 mps 753 mmHg 79%
    01:00 +9°C° 0 mm 6 mps 752 mmHg 79%
    02:00 +9°C° 0 mm 6 mps 752 mmHg 80%
    03:00 +9°C° 0 mm 6 mps 752 mmHg 79%
    04:00 +9°C° 0 mm 6 mps 752 mmHg 79%
    05:00 +9°C° 0 mm 5 mps 752 mmHg 78%
    06:00 +9°C° 0 mm 5 mps 752 mmHg 78%
    07:00 +9°C° 0 mm 5 mps 752 mmHg 78%
    08:00 +9°C° 0 mm 5 mps 752 mmHg 78%
    09:00 +12°C° 0 mm 5 mps 752 mmHg 72%
    10:00 +13°C° 0 mm 5 mps 752 mmHg 67%
    11:00 +15°C° 0 mm 5 mps 752 mmHg 61%
    12:00 +15°C° 0 mm 5 mps 751 mmHg 60%
    13:00 +15°C° 0 mm 5 mps 750 mmHg 60%
    14:00 +15°C° 0 mm 5 mps 750 mmHg 60%
    15:00 +14°C° 0 mm 5 mps 750 mmHg 61%
    16:00 +14°C° 0 mm 5 mps 749 mmHg 63%
    17:00 +13°C° 0 mm 5 mps 749 mmHg 64%
    18:00 +13°C° 0 mm 6 mps 749 mmHg 65%
    19:00 +11°C° 0 mm 6 mps 749 mmHg 66%
    20:00 +11°C° 0 mm 6 mps 749 mmHg 66%
    21:00 +11°C° 0 mm 6 mps 749 mmHg 66%
    22:00 +11°C° 0 mm 6 mps 749 mmHg 65%
    23:00 +11°C° 0 mm 6 mps 749 mmHg 65%

    21 January, Sunday

    Time Temperature Precipitation Wind Pressure Humidity
    00:00 +11°C° 0 mm 6 mps 748 mmHg 66%
    01:00 +11°C° 0 mm 6 mps 748 mmHg 68%
    02:00 +11°C° 0 mm 6 mps 748 mmHg 69%
    03:00 +12°C° 0 mm 5 mps 747 mmHg 69%
    04:00 +12°C° 0 mm 5 mps 746 mmHg 69%
    05:00 +12°C° 0 mm 5 mps 746 mmHg 69%
    06:00 +12°C° 0 mm 5 mps 745 mmHg 69%
    07:00 +12°C° 0 mm 5 mps 745 mmHg 70%
    08:00 +12°C° 0 mm 5 mps 745 mmHg 71%
    09:00 +13°C° 0 mm 5 mps 744 mmHg 68%
    10:00 +15°C° 0 mm 5 mps 744 mmHg 65%
    11:00 +16°C° 0 mm 5 mps 744 mmHg 62%
    12:00 +16°C° 0 mm 5 mps 743 mmHg 62%
    13:00 +17°C° 0 mm 4 mps 742 mmHg 61%
    14:00 +17°C° 0 mm 4 mps 741 mmHg 61%
    15:00 +15°C° 0 mm 4 mps 741 mmHg 63%
    16:00 +15°C° 0 mm 4 mps 740 mmHg 64%
    17:00 +14°C° 0 mm 3 mps 740 mmHg 65%
    18:00 +13°C° 0.1 mm 4 mps 740 mmHg 67%
    19:00 +13°C° 0.1 mm 4 mps 740 mmHg 69%
    20:00 +12°C° 0.1 mm 4 mps 740 mmHg 71%
    21:00 +12°C° 0.1 mm 4 mps 740 mmHg 71%
    22:00 +12°C° 0.1 mm 5 mps 739 mmHg 71%
    23:00 +10°C° 0.1 mm 5 mps 739 mmHg 71%

    22 January, Monday

    Time Temperature Precipitation Wind Pressure Humidity
    00:00 +10°C° 2.6 mm 6 mps 738 mmHg 76%
    01:00 +10°C° 2.6 mm 6 mps 738 mmHg 81%
    02:00 +10°C° 2.6 mm 6 mps 737 mmHg 87%
    03:00 +10°C° 1.5 mm 7 mps 737 mmHg 85%
    04:00 +10°C° 1.5 mm 8 mps 737 mmHg 82%
    05:00 +10°C° 1.5 mm 9 mps 737 mmHg 80%
    06:00 +9°C° 1.1 mm 11 mps 738 mmHg 80%
    07:00 +9°C° 1.1 mm 14 mps 739 mmHg 80%
    08:00 +9°C° 1.1 mm 17 mps 739 mmHg 79%
    09:00 +9°C° 0.5 mm 16 mps 740 mmHg 79%
    10:00 +9°C° 0.5 mm 16 mps 741 mmHg 78%
    11:00 +7°C° 0.5 mm 16 mps 742 mmHg 78%
    12:00 +8°C° 0.2 mm 15 mps 743 mmHg 75%
    13:00 +8°C° 0.2 mm 15 mps 743 mmHg 72%
    14:00 +8°C° 0.2 mm 15 mps 744 mmHg 69%
    15:00 +8°C° 0.2 mm 15 mps 745 mmHg 69%
    16:00 +6°C° 0.2 mm 15 mps 745 mmHg 68%
    17:00 +6°C° 0.2 mm 14 mps 746 mmHg 68%
    18:00 +6°C° 0.1 mm 14 mps 747 mmHg 68%
    19:00 +7°C° 0.1 mm 13 mps 747 mmHg 68%
    20:00 +5°C° 0.1 mm 13 mps 748 mmHg 67%
    21:00 +5°C° 0 mm 12 mps 749 mmHg 67%
    22:00 +5°C° 0 mm 12 mps 749 mmHg 66%
    23:00 +6°C° 0 mm 11 mps 749 mmHg 65%
    Show more